COSMOS 2413 (712) 1 28509U 04053B 12038.95574905 .00000079 00000-0 10000-3 0 9668 2 28509 63.3650 246.9444 0004670 136.3457 57.3880 2.13102329 55394 COSMOS 2419 (714) 1 28915U 05050A 12039.22270333 .00000027 00000-0 00000+0 0 7123 2 28915 64.8917 131.7280 0016240 348.2939 353.7763 2.13103349 47646 COSMOS 2425 (716) 1 29670U 06062A 12038.31067340 -.00000032 00000-0 10000-3 0 4205 2 29670 65.8302 10.4630 0023464 341.9518 90.9169 2.13105523 39833 COSMOS 2426 (717) 1 29671U 06062B 12039.82292196 -.00000032 00000-0 10000-3 0 4392 2 29671 65.8467 10.4605 0016645 175.8296 209.6430 2.13103346 39873 COSMOS 2424 (715) 1 29672U 06062C 12039.71066402 -.00000032 00000-0 10000-3 0 4480 2 29672 65.8320 10.4225 0016255 175.0992 304.2206 2.13103091 39861 COSMOS 2433 (720) 1 32275U 07052A 12038.61904337 .00000022 00000-0 10000-3 0 1709 2 32275 64.9029 131.4912 0002133 245.5265 264.0808 2.13102511 33358 COSMOS 2432 (719) 1 32276U 07052B 12039.10689247 .00000026 00000-0 10000-3 0 1563 2 32276 64.9168 131.5145 0012937 340.4058 136.9487 2.13102107 33362 COSMOS 2434 (721) 1 32393U 07065A 12039.18346407 -.00000033 00000-0 00000+0 0 50 2 32393 65.4538 10.5073 0001950 146.0531 331.8291 2.13102925 32078 COSMOS 2435 (722) 1 32394U 07065B 12039.28336769 -.00000033 00000-0 10000-3 0 9180 2 32394 65.4580 10.4972 0020276 352.6160 156.7763 2.13103994 32017 COSMOS 2436 (723) 1 32395U 07065C 12038.95882963 -.00000033 00000-0 10000-3 0 9254 2 32395 65.4670 10.5316 0017896 345.5771 51.4352 2.13103169 32002 COSMOS 2442 (724) 1 33378U 08046A 12039.35224242 .00000028 00000-0 10000-3 0 9502 2 33378 64.8163 131.0003 0024780 334.8810 61.4749 2.13102181 26233 COSMOS 2443 (725) 1 33379U 08046B 12039.66708590 .00000030 00000-0 10000-3 0 9378 2 33379 64.8251 131.0335 0020693 182.8077 321.0173 2.13102450 26241 COSMOS 2444 (726) 1 33380U 08046C 12039.45794704 .00000029 00000-0 10000-3 0 9399 2 33380 64.8347 131.0605 0025951 326.1127 333.1358 2.13102644 26222 COSMOS 2447 (727) 1 33466U 08067A 12039.16315601 .00000076 00000-0 00000+0 0 8778 2 33466 64.2105 250.7421 0002113 288.0970 247.0586 2.13102101 24283 COSMOS 2449 (729) 1 33467U 08067B 12038.95199032 .00000078 00000-0 00000+0 0 8832 2 33467 64.1986 250.7229 0002889 316.5938 192.1408 2.13101969 24304 COSMOS 2448 (728) 1 33468U 08067C 12039.72550594 .00000073 00000-0 10000-3 0 8776 2 33468 64.2029 250.7016 0004802 333.7452 316.7327 2.13101702 24306 COSMOS 2456 (730) 1 36111U 09070A 12039.46575248 .00000075 00000-0 00000+0 0 6239 2 36111 64.4375 250.8203 0005318 343.2096 154.5528 2.13101959 16746 COSMOS 2457 (733) 1 36112U 09070B 12039.80458712 .00000073 00000-0 00000+0 0 6108 2 36112 64.4197 250.7712 0006561 139.1800 33.7126 2.13101655 16755 COSMOS 2458 (734) 1 36113U 09070C 12039.12791848 .00000077 00000-0 10000-3 0 6158 2 36113 64.4263 250.7884 0003244 42.4816 16.4092 2.13102027 16741 COSMOS 2459 (731) 1 36400U 10007A 12039.46232556 .00000029 00000-0 10000-3 0 5518 2 36400 64.8026 130.8268 0031232 353.5070 308.5393 2.13102631 15098 COSMOS 2461 (735) 1 36401U 10007B 12038.73376166 .00000024 00000-0 10000-3 0 5519 2 36401 64.7957 130.8466 0005376 95.9320 277.4319 2.13102608 15081 COSMOS 2460 (732) 1 36402U 10007C 12039.52524804 .00000029 00000-0 10000-3 0 5573 2 36402 64.7847 130.8173 0001113 182.7600 121.9819 2.13102344 15092 COSMOS 2466 (738) 1 37137U 10041A 12038.91782528 -.00000032 00000-0 00000+0 0 4151 2 37137 65.0293 11.4483 0020500 160.2775 337.8701 2.13102618 11166 COSMOS 2465 (737) 1 37138U 10041B 12039.17727270 -.00000033 00000-0 00000+0 0 4256 2 37138 65.0452 11.4812 0034780 171.4932 346.2407 2.13102991 11165 COSMOS 2464 (736) 1 37139U 10041C 12038.91313810 -.00000032 00000-0 00000+0 0 4089 2 37139 65.0473 11.4787 0020550 6.2636 83.5511 2.13102881 11161 COSMOS 2471 (701K) 1 37372U 11009A 12039.40407021 .00000028 00000-0 10000-3 0 2858 2 37372 64.7960 130.7520 0005540 235.0659 77.9758 2.13109704 7375 COSMOS 2474 (742) 1 37829U 11055A 12039.20749509 .00000078 00000-0 00000+0 0 1123 2 37829 64.7563 250.5862 0006398 279.9637 245.4119 2.13101993 2736 COSMOS 2476 (744) 1 37867U 11064A 12039.16250472 .00000078 00000-0 00000+0 0 800 2 37867 64.7381 250.7102 0014795 267.5700 268.3059 2.13102125 2082 COSMOS 2477 (745) 1 37868U 11064B 12038.95950818 .00000079 00000-0 00000+0 0 832 2 37868 64.7455 250.7412 0013104 269.8869 290.3886 2.13101990 2030 COSMOS 2475 (743) 1 37869U 11064C 12039.72271737 .00000074 00000-0 10000-3 0 734 2 37869 64.7554 250.6937 0019523 287.3538 3.4870 2.13101635 2055 COSMOS 2478 (746) 1 37938U 11071A 12039.74188644 .00000030 00000-0 00000+0 0 631 2 37938 64.8152 130.9204 0012085 240.2566 140.1833 2.13102629 1678